Terminal Aerodrome Forecast
Issued by NWS

Home | Current Version | Previous Version | Text Only | Print | Product List | Glossary On
Versions: 1 2 3 4 5 6 7 8 9 10 11 12 13 14 15 16 17 18 19 20 21 22 23 24 25 26 27 28 29
000
FTUS43 KSGF 260520
TAFBBG
TAF
KBBG 260520Z 2606/2706 16005KT 6SM BR OVC006
     FM260900 15005KT 4SM BR OVC004
     FM261500 15007KT 6SM HZ OVC007
     FM261800 16010KT P6SM VCTS BKN015CB
     FM262100 16010KT P6SM VCTS BKN030CB
     FM270000 16005KT P6SM SCT035 OVC200=

USA.gov is the U.S. government's official web portal to all federal, state and local government web resources and services.